Regional Weather Roundup
Issued by NWS

Home | Current Version | Previous Version | Text Only | Print | Product List | Glossary Off
Versions: 1 2 3 4 5 6 7 8 9 10 11 12 13 14 15 16 17 18 19 20 21 22 23 24 25 26 27 28 29 30 31 32 33 34 35 36 37 38 39 40 41 42 43 44 45 46 47 48 49 50

000
ASUS43 KFSD 171210
RWRSD

WEATHER ROUNDUP FOR SOUTH DAKOTA
NATIONAL WEATHER SERVICE SIOUX FALLS SD
600 AM CST WED DEC 17 2014

NOTE: "FAIR" INDICATES FEW OR NO CLOUDS BELOW 12,000 FEET WITH NO
SIGNIFICANT WEATHER AND/OR OBSTRUCTIONS TO VISIBILITY.


SDZ001>005-009-010-012>017-171300-
NORTHWEST AND NORTH CENTRAL SOUTH DAKOTA

CITY           SKY/WX    TMP DP  RH WIND       PRES   REMARKS
BUFFALO          N/A     17  14  88 SE14      29.99F WCI   3
FAITH            N/A     16  12  84 SE12      30.14F WCI   3
MOBRIDGE       CLOUDY    17  11  77 SE10      30.24S WCI   5
$$

SDZ012>016-024>037-041>051-057-063-072>074-171300-
SOUTHWEST AND SOUTH CENTRAL SOUTH DAKOTA

CITY           SKY/WX    TMP DP  RH WIND       PRES   REMARKS
RAPID CTY ARPT CLOUDY    19  17  92 SE10      30.05F WCI   7
PIERRE         CLOUDY    16  13  88 E9        30.25S WCI   4
CUSTER         PTCLDY    21  16  81 W5        29.91F WCI  15
ELLSWORTH AFB  CLOUDY    19  17  92 S9        30.04F WCI   8
PHILIP         CLOUDY    19  15  84 E14       30.18S WCI   6
PINE RIDGE     CLOUDY    23  19  85 S6        30.05F WCI  16
SPEARFISH      CLOUDY    16  14  93 SE3       29.99F FOG
WINNER         CLOUDY    20  15  81 SE9       30.24S WCI   9
$$

SDZ004>011-016>023-039-040-171300-
NORTHEAST SOUTH DAKOTA

CITY           SKY/WX    TMP DP  RH WIND       PRES   REMARKS
ABERDEEN       PTCLDY     4   0  83 CALM      30.34S
WATERTOWN      PTCLDY     2  -2  83 CALM      30.28F
SISSETON         N/A      1  -1  91 NW7       30.34S WCI -12
$$

SDZ017-020-022-023-036>040-048>070-171300-
SOUTHEAST SOUTH DAKOTA

CITY           SKY/WX    TMP DP  RH WIND       PRES   REMARKS
SIOUX FALLS    PTCLDY     5   2  87 NE6       30.31F WCI  -6
HURON          FOG        0  -2  91 CALM      30.33S VSB 1/2
CHAMBERLAIN    CLOUDY    16  13  89 SE8       30.29S WCI   5
MITCHELL       PTCLDY     4   1  88 CALM      30.34S
YANKTON        PTCLDY     7   7 100 CALM      30.34S
$$

ABBREVIATIONS USED IN REMARKS
   TC - TEMPERATURE IN CELSIUS
  WCI - WIND CHILL INDEX
   HX - HEAT INDEX
  VSB - VISIBILITY




USA.gov is the U.S. government's official web portal to all federal, state and local government web resources and services.